Total_Precipitation_Accumulation
0.64 1.04 1.22 1.16 1.20 1.12 0.89 0.81 0.75 0.64 0.61 0.60 0.52 0.45 0.45 0.41 0.39 0.32 0.30 0.27 0.26 0.23 0.17 0.17 0.17 0.19 0.21 0.23 0.29 0.34 0.40 0.55 0.70 0.80 0.91 1.10 1.28 1.46 1.62 1.74 1.63 1.49 1.45 1.61
0.64 0.81 0.68 0.63 0.77 0.78 0.75 0.75 0.68 0.57 0.47 0.41 0.35 0.35 0.38 0.34 0.29 0.23 0.22 0.22 0.19 0.15 0.12 0.09 0.08 0.10 0.12 0.14 0.18 0.23 0.31 0.42 0.55 0.71 0.94 1.16 1.46 1.55 1.64 1.78 1.82 1.76 1.69 1.84
0.60 0.54 0.38 0.44 0.59 0.59 0.56 0.60 0.57 0.50 0.41 0.33 0.27 0.30 0.33 0.31 0.27 0.22 0.17 0.18 0.15 0.12 0.10 0.06 0.06 0.06 0.09 0.10 0.11 0.18 0.29 0.44 0.66 0.89 1.20 1.50 1.73 1.81 1.86 1.81 1.88 1.97 2.02 2.08
0.60 0.41 0.34 0.42 0.48 0.47 0.53 0.40 0.34 0.31 0.33 0.31 0.29 0.42 0.31 0.29 0.30 0.26 0.23 0.23 0.19 0.15 0.11 0.08 0.08 0.08 0.09 0.12 0.16 0.26 0.42 0.62 0.90 1.23 1.58 1.82 2.05 2.14 1.99 1.97 2.01 2.03 1.98 2.01
0.49 0.36 0.34 0.39 0.32 0.29 0.35 0.29 0.32 0.29 0.27 0.24 0.18 0.25 0.27 0.29 0.37 0.30 0.24 0.25 0.24 0.21 0.17 0.14 0.15 0.16 0.19 0.25 0.32 0.48 0.72 1.01 1.29 1.52 1.70 1.92 2.05 2.07 2.05 2.01 2.00 1.93 1.91 1.87
0.41 0.31 0.31 0.28 0.21 0.23 0.25 0.27 0.35 0.34 0.32 0.28 0.15 0.21 0.31 0.32 0.33 0.29 0.25 0.23 0.20 0.20 0.21 0.22 0.24 0.30 0.37 0.42 0.55 0.73 0.91 1.19 1.36 1.48 1.60 1.79 1.94 1.99 2.01 1.99 1.99 1.98 1.95 1.85
0.33 0.28 0.23 0.19 0.21 0.21 0.22 0.33 0.49 0.53 0.49 0.34 0.19 0.31 0.42 0.37 0.30 0.24 0.24 0.24 0.21 0.24 0.28 0.29 0.38 0.53 0.62 0.65 0.73 0.88 0.96 1.12 1.23 1.27 1.37 1.52 1.59 1.66 1.72 1.71 1.67 1.61 1.57 1.56
0.28 0.27 0.20 0.16 0.17 0.17 0.17 0.26 0.48 0.55 0.48 0.36 0.30 0.52 0.55 0.39 0.31 0.28 0.25 0.23 0.25 0.35 0.44 0.55 0.68 0.78 0.85 0.86 0.82 0.83 0.96 1.01 0.98 1.01 1.03 1.15 1.25 1.31 1.38 1.39 1.38 1.41 1.44 1.45
0.23 0.23 0.15 0.11 0.10 0.12 0.13 0.16 0.22 0.35 0.33 0.33 0.39 0.65 0.64 0.39 0.32 0.29 0.26 0.27 0.34 0.49 0.68 0.90 1.08 1.19 1.27 1.18 0.98 0.84 0.85 0.84 0.81 0.86 0.91 0.96 1.06 1.10 1.13 1.17 1.13 1.23 1.26 1.25
0.17 0.20 0.16 0.11 0.09 0.08 0.13 0.19 0.28 0.44 0.53 0.52 0.53 0.71 0.71 0.53 0.43 0.36 0.37 0.47 0.64 0.84 1.11 1.36 1.60 1.72 1.69 1.50 1.22 0.94 0.79 0.75 0.71 0.74 0.79 0.86 0.90 0.91 0.90 0.93 0.89 0.96 1.05 1.04
0.13 0.19 0.15 0.11 0.09 0.10 0.16 0.26 0.34 0.47 0.54 0.68 0.79 0.90 0.77 0.71 0.65 0.62 0.70 0.88 1.09 1.35 1.54 1.68 1.83 1.88 1.62 1.43 1.18 0.92 0.77 0.80 0.80 0.79 0.79 0.80 0.78 0.76 0.75 0.74 0.72 0.75 0.80 0.80
0.10 0.15 0.16 0.10 0.10 0.14 0.27 0.43 0.57 0.81 0.76 0.73 0.92 1.02 0.78 0.73 0.80 0.84 0.96 1.01 1.11 1.27 1.29 1.37 1.42 1.38 1.34 1.29 1.11 0.94 0.85 0.86 0.89 0.88 0.87 0.80 0.71 0.68 0.68 0.65 0.58 0.59 0.57 0.56
0.17 0.25 0.26 0.22 0.28 0.34 0.42 0.46 0.50 0.62 0.70 0.75 0.96 1.06 0.71 0.66 0.71 0.88 1.06 1.11 1.17 1.19 1.11 1.11 1.11 1.12 1.15 1.13 1.00 0.98 0.95 0.95 0.95 0.93 0.84 0.75 0.69 0.60 0.56 0.49 0.45 0.52 0.54 0.58
0.19 0.29 0.35 0.40 0.43 0.45 0.51 0.49 0.42 0.49 0.71 0.77 0.93 0.92 0.74 0.68 0.68 0.80 0.93 1.03 0.98 0.92 0.86 0.87 0.92 0.95 1.04 1.02 0.97 0.91 0.88 0.92 1.02 1.07 0.97 0.86 0.74 0.63 0.57 0.50 0.45 0.44 0.47 0.53
0.10 0.12 0.15 0.16 0.17 0.25 0.45 0.55 0.53 0.49 0.52 0.69 0.73 0.66 0.61 0.55 0.61 0.67 0.70 0.66 0.58 0.54 0.56 0.61 0.64 0.64 0.62 0.59 0.62 0.64 0.70 0.80 0.95 1.09 1.07 0.93 0.74 0.61 0.55 0.50 0.43 0.42 0.43 0.44
0.04 0.03 0.04 0.06 0.08 0.17 0.30 0.41 0.42 0.38 0.37 0.44 0.50 0.50 0.41 0.37 0.43 0.45 0.47 0.43 0.39 0.36 0.33 0.31 0.32 0.34 0.34 0.31 0.28 0.27 0.34 0.49 0.74 1.00 0.98 0.76 0.59 0.47 0.42 0.42 0.40 0.36 0.36 0.42
0.01 0.02 0.05 0.05 0.05 0.12 0.32 0.37 0.34 0.33 0.25 0.26 0.31 0.31 0.27 0.29 0.35 0.35 0.38 0.39 0.30 0.22 0.20 0.20 0.21 0.21 0.20 0.20 0.18 0.19 0.27 0.39 0.56 0.66 0.62 0.52 0.41 0.39 0.42 0.43 0.38 0.36 0.36 0.38
0.01 0.04 0.07 0.07 0.09 0.30 0.58 0.53 0.44 0.40 0.22 0.15 0.15 0.16 0.19 0.29 0.31 0.31 0.29 0.29 0.28 0.18 0.12 0.12 0.12 0.13 0.15 0.16 0.20 0.23 0.27 0.34 0.39 0.41 0.41 0.35 0.32 0.32 0.35 0.37 0.36 0.42 0.47 0.45
0.05 0.12 0.15 0.16 0.21 0.43 0.54 0.49 0.49 0.49 0.33 0.13 0.09 0.10 0.09 0.09 0.11 0.13 0.13 0.11 0.11 0.07 0.04 0.04 0.03 0.03 0.05 0.05 0.07 0.09 0.11 0.13 0.14 0.14 0.14 0.13 0.13 0.15 0.17 0.18 0.24 0.36 0.42 0.44
0.09 0.14 0.20 0.22 0.29 0.43 0.37 0.23 0.25 0.38 0.44 0.12 0.05 0.04 0.02 0.01 0.04 0.06 0.07 0.07 0.03 0.02 0.01 0.01 0.01 0.00 0.00 0.00 0.01 0.01 0.01 0.02 0.03 0.02 0.02 0.03 0.03 0.04 0.05 0.07 0.10 0.18 0.21 0.26
0.07 0.13 0.18 0.24 0.42 0.63 0.45 0.25 0.23 0.39 0.40 0.09 0.03 0.01 0.00 0.00 0.00 0.02 0.05 0.05 0.03 0.01 0.01 0.01 0.01 0.01 0.01 0.00 0.00 0.00 0.01 0.01 0.01 0.01 0.01 0.01 0.01 0.01 0.01 0.03 0.05 0.08 0.10 0.15
0.08 0.13 0.18 0.31 0.60 0.83 0.64 0.42 0.34 0.26 0.11 0.03 0.01 0.00 0.00 0.00 0.00 0.01 0.03 0.03 0.03 0.02 0.01 0.01 0.00 0.00 0.01 0.01 0.00 0.00 0.01 0.01 0.01 0.02 0.01 0.01 0.01 0.01 0.02 0.02 0.04 0.04 0.05 0.08
0.04 0.06 0.09 0.23 0.46 0.52 0.47 0.35 0.25 0.17 0.07 0.01 0.00 0.00 0.00 0.00 0.00 0.00 0.01 0.02 0.01 0.01 0.01 0.01 0.00 0.00 0.01 0.01 0.00 0.01 0.01 0.01 0.01 0.02 0.01 0.01 0.02 0.02 0.02 0.03 0.04 0.04 0.05 0.07
0.03 0.03 0.03 0.05 0.10 0.15 0.18 0.18 0.11 0.08 0.05 0.01 0.00 0.00 0.00 0.00 0.00 0.00 0.01 0.02 0.02 0.01 0.01 0.01 0.01 0.01 0.01 0.00 0.00 0.00 0.01 0.01 0.01 0.01 0.01 0.01 0.02 0.02 0.02 0.04 0.05 0.05 0.05 0.07
0.02 0.04 0.05 0.05 0.03 0.03 0.07 0.08 0.07 0.04 0.02 0.00 0.00 0.00 0.00 0.00 0.00 0.00 0.01 0.03 0.02 0.02 0.01 0.01 0.01 0.01 0.01 0.01 0.01 0.00 0.00 0.01 0.01 0.01 0.01 0.01 0.01 0.02 0.02 0.02 0.02 0.04 0.04 0.06
0.01 0.02 0.04 0.04 0.03 0.02 0.04 0.04 0.04 0.02 0.01 0.00 0.00 0.00 0.00 0.00 0.00 0.00 0.00 0.02 0.03 0.03 0.01 0.01 0.01 0.01 0.01 0.01 0.00 0.00 0.00 0.00 0.01 0.01 0.01 0.01 0.01 0.02 0.02 0.03 0.02 0.03 0.04 0.07